Tappahannock, VA

10:24 PM EST on December 09, 2016 (GMT -0500)
Tappahannock

Weather History for KXSA - March, 2013

Change the Weather History Date:

Saturday, March 9, 2013

  Actual Average (KOFP) Record (KOFP)
Temperature  
Mean Temperature 45 °F -  
Max Temperature 59 °F 56 °F 82 °F (2009)
Min Temperature 30 °F 33 °F 12 °F (1960)
Degree Days  
Heating Degree Days 20    
Moisture  
Dew Point 24 °F    
Average Humidity 49    
Maximum Humidity 85    
Minimum Humidity 20    
Precipitation  
Precipitation 0.00 in - - ()
Sea Level Pressure  
Sea Level Pressure 30.28 in    
Wind  
Wind Speed 5 mph (NNW)    
Max Wind Speed 12 mph    
Max Gust Speed 16 mph    
Visibility 10 miles    
Events      
Averages and records for this station are not official NWS values.
T = Trace of Precipitation, MM = Missing Value Source: NWS Daily Summary

Daily Weather History Graph

Daily Weather History Graph

Search for Another Location

Airport or City:

Trip Planner

Search our weather history database for the weather conditions in past years. The results will help you decide how hot, cold, wet, or windy it might be!

Date:

Astronomy

Mar. 09, 2013 Rise Set
Actual Time 6:27 AM EST 6:09 PM EST
Civil Twilight 6:01 AM EST 6:35 PM EST
Nautical Twilight 5:30 AM EST 7:05 PM EST
Astronomical Twilight 5:00 AM EST 7:36 PM EST
Moon 4:48 AM EST (3/9) 4:10 PM EST (3/9)
Length of Visible Light 12h 34m
Length of Day
11h 41m
Waning Crescent, 5% of the Moon is Illuminated
Mar 9
Waning Crescent
Mar 11
New
Mar 19
First Quarter
Mar 27
Full
Apr 3
Last Quarter

Hourly Weather History & Observations

Time (EST) Temp. Windchill Dew Point Humidity Pressure Visibility Wind Dir Wind Speed Gust Speed Precip Events Conditions
12:15 AM 41.2 °F 36.0 °F 26.6 °F 56% 30.23 in 10.0 mi NW 8.1 mph - N/A   Clear
12:35 AM 40.5 °F 37.3 °F 26.6 °F 58% 30.24 in 10.0 mi WNW 4.6 mph - N/A   Clear
12:55 AM 40.1 °F 35.3 °F 26.6 °F 59% 30.25 in 10.0 mi WNW 6.9 mph - N/A   Clear
1:15 AM 40.1 °F 36.9 °F 26.4 °F 58% 30.25 in 10.0 mi NW 4.6 mph - N/A   Clear
1:35 AM 39.4 °F 35.2 °F 26.6 °F 60% 30.25 in 10.0 mi NW 5.8 mph - N/A   Clear
1:55 AM 39.4 °F 36.1 °F 26.4 °F 60% 30.25 in 10.0 mi NW 4.6 mph - N/A   Clear
2:15 AM 39.6 °F 35.4 °F 26.2 °F 59% 30.25 in 10.0 mi NW 5.8 mph - N/A   Clear
2:35 AM 39.4 °F 37.2 °F 26.1 °F 59% 30.25 in 10.0 mi NW 3.5 mph - N/A   Clear
2:55 AM 38.8 °F 35.4 °F 25.9 °F 60% 30.25 in 10.0 mi NW 4.6 mph - N/A   Clear
3:15 AM 38.3 °F 33.9 °F 25.9 °F 61% 30.25 in 10.0 mi NW 5.8 mph - N/A   Clear
3:35 AM 38.3 °F 33.9 °F 25.7 °F 61% 30.25 in 10.0 mi NW 5.8 mph - N/A   Clear
3:55 AM 38.1 °F 33.7 °F 25.7 °F 61% 30.25 in 10.0 mi NNW 5.8 mph - N/A   Clear
4:15 AM 37.9 °F 34.4 °F 25.5 °F 61% 30.25 in 10.0 mi NW 4.6 mph - N/A   Clear
4:35 AM 37.8 °F 33.3 °F 25.3 °F 61% 30.25 in 10.0 mi NW 5.8 mph - N/A   Clear
4:55 AM 37.8 °F 33.3 °F 25.0 °F 60% 30.26 in 10.0 mi WNW 5.8 mph - N/A   Clear
5:15 AM 37.4 °F 32.8 °F 25.0 °F 61% 30.27 in 10.0 mi NNW 5.8 mph - N/A   Clear
5:35 AM 36.9 °F 32.2 °F 24.8 °F 62% 30.27 in 10.0 mi NNW 5.8 mph - N/A   Clear
5:55 AM 37.2 °F 31.2 °F 24.6 °F 60% 30.28 in 10.0 mi NW 8.1 mph - N/A   Clear
6:15 AM 36.7 °F 32.9 °F 24.6 °F 62% 30.28 in 10.0 mi NW 4.6 mph - N/A   Clear
6:35 AM 36.5 °F 31.0 °F 24.8 °F 63% 30.29 in 10.0 mi NW 6.9 mph - N/A   Clear
6:55 AM 36.5 °F 31.0 °F 24.8 °F 63% 30.29 in 10.0 mi NNW 6.9 mph - N/A   Clear
7:15 AM 37.4 °F 32.8 °F 25.2 °F 61% 30.30 in 10.0 mi NNW 5.8 mph - N/A   Clear
7:35 AM 38.7 °F 32.9 °F 24.8 °F 58% 30.30 in 10.0 mi NNW 8.1 mph - N/A   Clear
7:55 AM 39.7 °F 34.3 °F 24.4 °F 54% 30.31 in 10.0 mi NNW 8.1 mph 16.1 mph N/A   Clear
8:15 AM 41.0 °F 34.3 °F 24.4 °F 52% 30.31 in 10.0 mi NNW 11.5 mph - N/A   Clear
8:35 AM 41.9 °F 37.5 °F 24.3 °F 50% 30.32 in 10.0 mi North 6.9 mph 16.1 mph N/A   Clear
8:55 AM 43.0 °F 38.2 °F 24.1 °F 47% 30.33 in 10.0 mi NNW 8.1 mph - N/A   Clear
9:15 AM 44.4 °F 39.0 °F 23.5 °F 44% 30.33 in 10.0 mi NW 10.4 mph - N/A   Clear
9:35 AM 44.8 °F 39.9 °F 22.8 °F 42% 30.33 in 10.0 mi North 9.2 mph - N/A   Clear
9:55 AM 45.7 °F 41.0 °F 22.3 °F 40% 30.33 in 10.0 mi NNW 9.2 mph - N/A   Clear
10:15 AM 46.9 °F - 22.1 °F 38% 30.33 in 10.0 mi NNW 5.8 mph - N/A   Clear
10:35 AM 48.6 °F - 23.0 °F 37% 30.33 in 10.0 mi North 5.8 mph - N/A   Clear
10:55 AM 49.1 °F - 22.5 °F 35% 30.33 in 10.0 mi North 8.1 mph - N/A   Clear
11:15 AM 50.0 °F - 21.7 °F 33% 30.32 in 10.0 mi NNW 10.4 mph - N/A   Clear
11:35 AM 50.9 °F - 21.2 °F 31% 30.32 in 10.0 mi NNW 5.8 mph - N/A   Clear
11:55 AM 52.3 °F - 20.8 °F 29% 30.31 in 10.0 mi NNW 5.8 mph - N/A   Clear
12:15 PM 53.2 °F - 20.1 °F 27% 30.31 in 10.0 mi North 3.5 mph - N/A   Clear
12:35 PM 54.1 °F - 19.0 °F 25% 30.30 in 10.0 mi NNW 8.1 mph - N/A   Clear
12:55 PM 54.9 °F - 19.9 °F 26% 30.29 in 10.0 mi West 5.8 mph - N/A   Clear
1:15 PM 55.6 °F - 19.9 °F 25% 30.28 in 10.0 mi North 4.6 mph - N/A   Clear
1:35 PM 56.3 °F - 18.9 °F 23% 30.28 in 10.0 mi NNE 4.6 mph - N/A   Clear
1:55 PM 57.6 °F - 18.0 °F 21% 30.27 in 10.0 mi North 5.8 mph - N/A   Clear
2:15 PM 57.7 °F - 18.3 °F 22% 30.26 in 10.0 mi Calm Calm - N/A   Clear
2:35 PM 58.3 °F - 17.4 °F 20% 30.26 in 10.0 mi North 6.9 mph - N/A   Clear
2:55 PM 58.8 °F - 18.0 °F 20% 30.26 in 10.0 mi NNW 6.9 mph - N/A   Clear
3:15 PM 59.2 °F - 19.0 °F 21% 30.26 in 10.0 mi NNE 4.6 mph - N/A   Clear
3:35 PM 59.4 °F - 18.5 °F 20% 30.26 in 10.0 mi NNW 3.5 mph - N/A   Clear
3:55 PM 59.9 °F - 19.6 °F 21% 30.26 in 10.0 mi North 4.6 mph - N/A   Clear
4:15 PM 59.5 °F - 21.0 °F 23% 30.26 in 10.0 mi NW 4.6 mph - N/A   Clear
4:35 PM 59.4 °F - 20.5 °F 22% 30.26 in 10.0 mi NNW 5.8 mph - N/A   Clear
4:55 PM 58.8 °F - 20.3 °F 23% 30.25 in 10.0 mi NNW 3.5 mph - N/A   Clear
5:15 PM 57.9 °F - 19.9 °F 23% 30.25 in 10.0 mi Calm Calm - N/A   Clear
5:35 PM 56.8 °F - 20.3 °F 24% 30.26 in 10.0 mi Calm Calm - N/A   Clear
5:55 PM 55.8 °F - 19.9 °F 25% 30.26 in 10.0 mi Calm Calm - N/A   Clear
6:15 PM 52.0 °F - 23.0 °F 32% 30.26 in 10.0 mi Calm Calm - N/A   Clear
6:35 PM 48.6 °F - 23.2 °F 37% 30.26 in 10.0 mi Calm Calm - N/A   Clear
6:55 PM 46.4 °F - 23.9 °F 41% 30.27 in 10.0 mi Calm Calm - N/A   Clear
7:15 PM 44.4 °F - 24.6 °F 46% 30.27 in 10.0 mi Calm Calm - N/A   Clear
7:35 PM 42.8 °F - 24.1 °F 48% 30.27 in 10.0 mi Calm Calm - N/A   Clear
7:55 PM 40.6 °F - 27.5 °F 59% 30.28 in 10.0 mi Calm Calm - N/A   Clear
8:15 PM 39.2 °F - 27.0 °F 62% 30.28 in 10.0 mi Calm Calm - N/A   Clear
8:35 PM 38.1 °F - 28.2 °F 68% 30.28 in 10.0 mi Calm Calm - N/A   Clear
8:55 PM 36.0 °F - 29.7 °F 78% 30.29 in 10.0 mi Calm Calm - N/A   Clear
9:15 PM 37.0 °F - 28.4 °F 71% 30.30 in 10.0 mi Calm Calm - N/A   Clear
9:35 PM 35.2 °F - 28.0 °F 75% 30.31 in 10.0 mi Calm Calm - N/A   Clear
9:55 PM 35.4 °F - 28.2 °F 75% 30.31 in 10.0 mi Calm Calm - N/A   Clear
10:15 PM 33.8 °F - 28.2 °F 80% 30.31 in 10.0 mi Calm Calm - N/A   Clear
10:35 PM 32.2 °F - 27.5 °F 83% 30.31 in 10.0 mi Calm Calm - N/A   Clear
10:55 PM 32.5 °F - 27.1 °F 80% 30.31 in 10.0 mi Calm Calm - N/A   Clear
11:15 PM 32.0 °F - 27.1 °F 82% 30.30 in 10.0 mi Calm Calm - N/A   Clear
11:35 PM 31.3 °F - 27.1 °F 85% 30.30 in 10.0 mi Calm Calm - N/A   Clear
11:55 PM 30.9 °F - 26.4 °F 83% 30.30 in 10.0 mi Calm Calm - N/A   Clear